Home > Time Zones > World Clock > Weather > Greece > Ilio > Past weeks

Flag for Greece Weather past 2 weeks in Ilio, Greece

Now
57 °F

Passing clouds.


Feels Like: 54 °F
Forecast: 54 / 59 °F
Wind: 16 mph from Northwest

Location: Elefsis Airport

Current Time: Oct 26, 2014 at 3:28:48 AM

Latest Report: Oct 26, 2014 at 2:50 AM


Visibility: N/A

Pressure: 29.98 "Hg

Humidity: 67%

Dew point: 46 °F

Location of IlioLocation

Historic Weather in Ilio — Graph

°F

Ilio temperature yesterday

Maximum temperature yesterday: 63 °F (at 3:20 PM)
Minimum temperature yesterday: 52 °F (at 3:50 AM)
Average temperature yesterday: 57 °F

Past Weeks' High & Low Weather Summary

 TemperatureHumidityPressure
High88 °F (Oct 16, 3:50 PM)100% (Oct 22, 10:20 AM)30.30 "Hg (Oct 22, 10:20 AM)
Low36 °F (Oct 22, 10:20 AM)22% (Oct 16, 3:50 PM)29.47 "Hg (Oct 23, 8:20 AM)
Average68 °F59%29.95 "Hg
* Reported Oct 11 2:20 AM — Oct 26 2:20 AM, Ilio, Weather by CustomWeather, © 2014

Note: Actual official high and low records may vary slightly from our data, if they occured in-between our weather recording intervals... More about our weather records

Advertising

Ilio weather history for previous 24 hours

 ConditionsComfort  
Time TempWeatherWind HumidityBarometerVisibility
2:20 AM
Oct 26
57 °FPassing clouds.14 mph67%29.95 "HgN/A
1:50 AM57 °FPassing clouds.14 mph67%29.98 "HgN/A
1:20 AM57 °FPassing clouds.9 mph63%29.95 "HgN/A
12:50 AM57 °FPassing clouds.9 mph63%29.95 "HgN/A
12:20 AM57 °FPassing clouds.9 mph67%29.95 "HgN/A
11:50 PM
Oct 25
57 °FPassing clouds.6 mph63%29.95 "HgN/A
11:20 PM57 °FPassing clouds.12 mph63%29.95 "HgN/A
10:50 PM55 °FPassing clouds.12 mph67%29.95 "HgN/A
10:20 PM55 °FPassing clouds.8 mph67%29.95 "HgN/A
9:50 PM57 °FPassing clouds.9 mph63%29.95 "HgN/A
9:20 PM55 °FPassing clouds.7 mph67%29.95 "HgN/A
8:50 PM57 °FPassing clouds.9 mph63%29.92 "HgN/A
8:20 PM57 °FPassing clouds.10 mph63%29.92 "HgN/A
7:20 PM59 °FPassing clouds.5 mph59%29.89 "HgN/A
6:50 PM59 °FPassing clouds.7 mph59%29.89 "HgN/A
6:20 PM61 °FPassing clouds.6 mph59%29.89 "HgN/A
5:50 PM61 °FPassing clouds.9 mph59%29.86 "HgN/A
5:20 PM63 °FScattered clouds.10 mph56%29.86 "HgN/A
4:20 PM63 °FScattered clouds.14 mph56%29.86 "HgN/A
3:50 PM63 °FScattered clouds.12 mph56%29.86 "HgN/A
3:20 PM63 °FScattered clouds.10 mph52%29.86 "HgN/A
2:50 PM61 °FBroken clouds.10 mph55%29.86 "HgN/A
2:20 PM59 °FPartly sunny.8 mph63%29.86 "HgN/A
1:50 PM59 °FPartly sunny.10 mph63%29.86 "HgN/A
1:20 PM57 °FPartly sunny.9 mph67%29.86 "HgN/A
12:50 PM57 °FPartly sunny.9 mph72%29.86 "HgN/A
12:20 PM57 °FPartly sunny.9 mph77%29.83 "HgN/A
11:50 AM57 °FLight rain. Partly sunny.7 mph72%29.83 "HgN/A
11:20 AM57 °FLight rain. Partly sunny.9 mph77%29.83 "HgN/A
10:50 AM55 °FLight rain. Partly sunny.6 mph88%29.80 "HgN/A
10:20 AM55 °FLight rain. Partly sunny.6 mph88%29.80 "HgN/A
9:20 AM55 °FLight rain. Partly sunny.5 mph88%29.77 "HgN/A
8:50 AM54 °FRain. Partly sunny.5 mph94%29.77 "Hg6 mi
8:20 AM55 °FLight rain. Passing clouds.5 mph82%29.74 "HgN/A
7:50 AM54 °FPassing clouds.No wind88%29.74 "HgN/A
7:20 AM54 °FPartly cloudy.3 mph82%29.74 "HgN/A
6:50 AM54 °FPartly cloudy.7 mph88%29.74 "HgN/A
6:20 AM54 °FPartly cloudy.No wind82%29.74 "HgN/A
5:50 AM52 °FPassing clouds.No wind88%29.74 "HgN/A
5:20 AM52 °FPassing clouds.No wind88%29.71 "HgN/A
4:50 AM54 °FPassing clouds.No wind82%29.71 "HgN/A
3:50 AM52 °FPassing clouds.5 mph88%29.71 "HgN/A
3:20 AM54 °FPassing clouds.No wind82%29.71 "HgN/A
Weather by CustomWeather, © 2014

See weather overviewHow to use our weather pages